Moorhead, MN

3:48 PM CDT on June 24, 2017 (GMT -0500)
Moorhead Municipal

Weather History for KJKJ - June, 2014

Change the Weather History Date:

Monday, June 9, 2014

  Actual Average (KFAR) Record (KFAR)
Temperature  
Mean Temperature 66 °F -  
Max Temperature 78 °F 76 °F 96 °F (2012)
Min Temperature 53 °F 51 °F 32 °F (1915)
Growing Degree Days 16 (Base 50)    
Moisture  
Dew Point 43 °F    
Average Humidity 52    
Maximum Humidity 94    
Minimum Humidity 14    
Precipitation  
Precipitation 0.00 in - - ()
Sea Level Pressure  
Sea Level Pressure 29.98 in    
Wind  
Wind Speed 5 mph (WSW)    
Max Wind Speed 14 mph    
Max Gust Speed 24 mph    
Visibility 10 miles    
Events      
Averages and records for this station are not official NWS values.
T = Trace of Precipitation, MM = Missing Value Source: NWS Daily Summary

Daily Weather History Graph

Daily Weather History Graph

Search for Another Location

Airport or City:

Trip Planner

Search our weather history database for the weather conditions in past years. The results will help you decide how hot, cold, wet, or windy it might be!

Date:

Astronomy

Jun. 09, 2014 Rise Set
Actual Time 5:32 AM CDT 9:19 PM CDT
Civil Twilight 4:53 AM CDT 9:58 PM CDT
Nautical Twilight 4:00 AM CDT 10:52 PM CDT
Astronomical Twilight 2:44 AM CDT 12:08 AM CDT
Moon 5:29 PM CDT (6/9) 3:14 AM CDT (6/9)
Length of Visible Light 17h 05m
Length of Day
15h 47m
Waxing Gibbous, 85% of the Moon is Illuminated
Jun 9
Waxing Gibbous
Jun 12
Full
Jun 19
Last Quarter
Jun 27
New
Jul 5
First Quarter

Hourly Weather History & Observations

Time (CDT) Temp. Dew Point Humidity Pressure Visibility Wind Dir Wind Speed Gust Speed Precip Events Conditions
12:15 AM 59.0 °F 44.6 °F 59% 30.02 in 10.0 mi SW 5.8 mph - N/A   Clear
12:35 AM 57.2 °F 44.6 °F 63% 30.02 in 10.0 mi SSW 4.6 mph - N/A   Clear
12:54 AM 57.2 °F 44.6 °F 63% 30.02 in 10.0 mi SSW 5.8 mph - N/A   Clear
1:15 AM 57.2 °F 46.4 °F 67% 30.02 in 10.0 mi South 3.5 mph - N/A   Clear
1:34 AM 57.2 °F 44.6 °F 63% 30.02 in 10.0 mi SSW 5.8 mph - N/A   Clear
1:55 AM 55.4 °F 46.4 °F 72% 30.02 in 10.0 mi SSW 5.8 mph - N/A   Clear
2:15 AM 53.6 °F 46.4 °F 77% 30.02 in 10.0 mi SW 3.5 mph - N/A   Scattered Clouds
2:34 AM 53.6 °F 48.2 °F 82% 30.02 in 10.0 mi WSW 3.5 mph - N/A   Mostly Cloudy
2:55 AM 55.4 °F 50.0 °F 82% 30.02 in 10.0 mi Calm Calm - N/A   Overcast
3:15 AM 55.4 °F 51.8 °F 88% 30.02 in 10.0 mi SW 3.5 mph - N/A   Overcast
3:34 AM 55.4 °F 51.8 °F 88% 30.02 in 10.0 mi WSW 3.5 mph - N/A   Overcast
3:55 AM 55.4 °F 51.8 °F 88% 30.02 in 10.0 mi SW 3.5 mph - N/A   Overcast
4:15 AM 55.4 °F 51.8 °F 88% 30.01 in 10.0 mi SSW 3.5 mph - N/A   Scattered Clouds
4:34 AM 55.4 °F 51.8 °F 88% 30.02 in 10.0 mi Calm Calm - N/A   Clear
4:55 AM 55.4 °F 51.8 °F 88% 30.02 in 10.0 mi Calm Calm - N/A   Scattered Clouds
5:15 AM 55.4 °F 50.0 °F 82% 30.02 in 10.0 mi SW 3.5 mph - N/A   Mostly Cloudy
5:35 AM 53.6 °F 51.8 °F 94% 30.01 in 10.0 mi Calm Calm - N/A   Overcast
5:55 AM 53.6 °F 51.8 °F 94% 30.02 in 10.0 mi Calm Calm - N/A   Scattered Clouds
6:14 AM 53.6 °F 51.8 °F 94% 30.02 in 10.0 mi Calm Calm - N/A   Clear
6:35 AM 53.6 °F 51.8 °F 94% 30.03 in 10.0 mi Calm Calm - N/A   Clear
6:55 AM 53.6 °F 51.8 °F 94% 30.03 in 10.0 mi Calm Calm - N/A   Clear
7:14 AM 55.4 °F 53.6 °F 94% 30.02 in 10.0 mi Calm Calm - N/A   Clear
7:35 AM 57.2 °F 53.6 °F 88% 30.02 in 10.0 mi South 3.5 mph - N/A   Clear
7:55 AM 60.8 °F 53.6 °F 77% 30.03 in 10.0 mi SW 5.8 mph - N/A   Clear
8:14 AM 60.8 °F 53.6 °F 77% 30.02 in 10.0 mi SW 3.5 mph - N/A   Clear
8:35 AM 62.6 °F 53.6 °F 72% 30.02 in 10.0 mi WSW 5.8 mph - N/A   Clear
8:54 AM 62.6 °F 53.6 °F 72% 30.02 in 10.0 mi West 6.9 mph - N/A   Clear
9:15 AM 64.4 °F 53.6 °F 68% 30.02 in 10.0 mi WSW 6.9 mph - N/A   Clear
9:34 AM 64.4 °F 53.6 °F 68% 30.02 in 10.0 mi WSW 5.8 mph - N/A   Clear
10:15 AM 68.0 °F 53.6 °F 60% 30.02 in 10.0 mi SW 8.1 mph - N/A   Clear
10:34 AM 69.8 °F 50.0 °F 49% 30.01 in 10.0 mi WSW 11.5 mph - N/A   Clear
10:55 AM 69.8 °F 51.8 °F 53% 30.00 in 10.0 mi West 9.2 mph - N/A   Clear
11:34 AM 71.6 °F 46.4 °F 41% 30.01 in 10.0 mi SW 6.9 mph 18.4 mph N/A   Clear
11:55 AM 71.6 °F 44.6 °F 38% 30.00 in 10.0 mi West 11.5 mph 17.3 mph N/A   Clear
12:15 PM 71.6 °F 42.8 °F 35% 30.00 in 10.0 mi WSW 10.4 mph 18.4 mph N/A   Clear
12:34 PM 73.4 °F 44.6 °F 36% 29.99 in 10.0 mi West 13.8 mph 17.3 mph N/A   Clear
12:55 PM 73.4 °F 42.8 °F 33% 29.98 in 10.0 mi West 12.7 mph - N/A   Clear
1:15 PM 73.4 °F 37.4 °F 27% 29.97 in 10.0 mi West 13.8 mph 19.6 mph N/A   Clear
1:35 PM 73.4 °F 33.8 °F 23% 29.97 in 10.0 mi West 10.4 mph - N/A   Clear
3:15 PM 78.8 °F 28.4 °F 16% 29.94 in 10.0 mi NW 12.7 mph 24.2 mph N/A   Clear
3:35 PM 77.0 °F 28.4 °F 17% 29.94 in 10.0 mi WNW 11.5 mph 17.3 mph N/A   Clear
3:54 PM 78.8 °F 26.6 °F 15% 29.93 in 10.0 mi West 13.8 mph 18.4 mph N/A   Clear
4:15 PM 77.0 °F 26.6 °F 16% 29.93 in 10.0 mi WNW 10.4 mph 17.3 mph N/A   Clear
4:35 PM 78.8 °F 24.8 °F 14% 29.93 in 10.0 mi NNW 12.7 mph - N/A   Scattered Clouds
4:54 PM 77.0 °F 28.4 °F 17% 29.93 in 10.0 mi North 11.5 mph - N/A   Scattered Clouds
5:15 PM 77.0 °F 26.6 °F 16% 29.93 in 10.0 mi WNW 9.2 mph - N/A   Scattered Clouds
5:35 PM 77.0 °F 28.4 °F 17% 29.93 in 10.0 mi NNW 5.8 mph - N/A   Scattered Clouds
5:54 PM 78.8 °F 26.6 °F 15% 29.93 in 10.0 mi West 6.9 mph - N/A   Scattered Clouds
6:15 PM 77.0 °F 24.8 °F 14% 29.93 in 10.0 mi WNW 4.6 mph - N/A   Clear
6:35 PM 75.2 °F 26.6 °F 17% 29.93 in 10.0 mi Calm Calm - N/A   Clear
6:55 PM 75.2 °F 24.8 °F 15% 29.92 in 10.0 mi Calm Calm - N/A   Clear
7:15 PM 77.0 °F 26.6 °F 16% 29.92 in 10.0 mi Calm Calm - N/A   Clear
7:34 PM 77.0 °F 28.4 °F 17% 29.91 in 10.0 mi Calm Calm - N/A   Clear
7:55 PM 75.2 °F 30.2 °F 19% 29.92 in 10.0 mi Calm Calm - N/A   Clear
8:15 PM 75.2 °F 28.4 °F 18% 29.91 in 10.0 mi Calm Calm - N/A   Clear
8:34 PM 75.2 °F 32.0 °F 21% 29.91 in 10.0 mi Calm Calm - N/A   Clear
8:55 PM 75.2 °F 33.8 °F 22% 29.91 in 10.0 mi Calm Calm - N/A   Clear
9:15 PM 73.4 °F 37.4 °F 27% 29.91 in 10.0 mi Calm Calm - N/A   Clear
9:34 PM 69.8 °F 42.8 °F 38% 29.91 in 10.0 mi SSE 5.8 mph - N/A   Clear
9:55 PM 68.0 °F 46.4 °F 46% 29.91 in 10.0 mi SSE 6.9 mph - N/A   Clear
10:15 PM 66.2 °F 46.4 °F 49% 29.92 in 10.0 mi SSE 6.9 mph - N/A   Clear
10:34 PM 68.0 °F 46.4 °F 46% 29.92 in 10.0 mi South 6.9 mph - N/A   Clear
10:55 PM 68.0 °F 46.4 °F 46% 29.92 in 10.0 mi South 9.2 mph - N/A   Clear
11:14 PM 68.0 °F 46.4 °F 46% 29.92 in 10.0 mi South 6.9 mph - N/A   Clear
11:35 PM 66.2 °F 46.4 °F 49% 29.92 in 10.0 mi South 6.9 mph - N/A   Clear
11:55 PM 64.4 °F 48.2 °F 56% 29.92 in 10.0 mi South 6.9 mph - N/A   Clear